Location: Allos
(44.2333°N, 6.6333°E)
Time: 10:21:14
(UTC+00:00)

SAR-Lupe-4 - Visible Passes

Search period start: 29 July 2021 00:00
Search period end: 08 August 2021 00:00
Orbit: 483 x 483 km, 98.2° (Epoch: 13 April)

Date Brightness Start Highest point End Pass type
(mag) Time Alt. Az. Time Alt. Az. Time Alt. Az.
29 Jul 6.6 20:38:16 10° NNW 20:40:46 18° WNW 20:43:16 10° WSW visible
30 Jul 5.4 20:12:39 10° N 20:15:57 34° WNW 20:19:12 10° SW visible
31 Jul 3.8 19:47:27 10° N 19:51:01 73° WNW 19:54:35 10° SSW visible
01 Aug 6.9 20:57:27 10° NW 20:58:54 12° WNW 21:00:21 10° W visible
02 Aug 6.2 20:31:18 10° NNW 20:34:08 22° WNW 20:36:57 10° WSW visible
03 Aug 4.9 20:05:50 10° N 20:09:16 43° WNW 20:12:40 10° SW visible
04 Aug 3.5 19:40:42 10° NNE 19:44:19 87° ESE 19:47:53 10° SSW visible
05 Aug 6.7 20:50:10 10° NNW 20:52:15 15° WNW 20:54:19 10° W visible
06 Aug 5.8 20:24:21 10° N 20:27:26 27° WNW 20:30:30 10° SW visible
07 Aug 4.3 19:59:00 10° N 20:02:32 56° WNW 20:06:02 10° SSW visible
